Location: F?ge?el
(45.8833°N, 22.5833°E)
Time: 13:46:31
(UTC+00:00)

CBERS-1 - Pass Details

Date: 17 November 2025
Orbit: 765 x 772 km, 98.8° (Epoch: 06 December)

Event Time Altitude Azimuth Distance (km) Brightness Sun altitude
Rises 15:21:45 0° 165° (SSE) 3,231 7.3 -4.9°
Reaches altitude 10° 15:24:02 10° 166° (SSE) 2,309 6.6 -5.2°
Maximum altitude 15:29:09 85° 255° (WSW) 781 4.1 -6.1°
Drops below altitude 10° 15:34:17 10° 345° (NNW) 2,328 6.5 -6.9°
Sets 15:36:37 0° 346° (NNW) 3,259 7.2 -7.3°
